owner,sensor,date,latitude,longitude,vertical_datum,sea_water_temperature,qcFlag 
TCOON,ioos:station:TCOON:127:1,2017-07-01T00:18:00Z,28.2598,-96.7737,0.0,30.1,2 
TCOON,ioos:station:TCOON:127:1,2017-07-01T01:18:00Z,28.2598,-96.7737,0.0,30.1,2 
TCOON,ioos:station:TCOON:127:1,2017-07-01T02:18:00Z,28.2598,-96.7737,0.0,30.1,2 
TCOON,ioos:station:TCOON:127:1,2017-07-01T03:18:00Z,28.2598,-96.7737,0.0,30.0,2 
TCOON,ioos:station:TCOON:127:1,2017-07-01T04:18:00Z,28.2598,-96.7737,0.0,29.9,2 
TCOON,ioos:station:TCOON:127:1,2017-07-01T05:18:00Z,28.2598,-96.7737,0.0,29.8,2 
TCOON,ioos:station:TCOON:127:1,2017-07-01T06:18:00Z,28.2598,-96.7737,0.0,29.7,2 
TCOON,ioos:station:TCOON:127:1,2017-07-01T07:18:00Z,28.2598,-96.7737,0.0,29.6,2 
TCOON,ioos:station:TCOON:127:1,2017-07-01T08:18:00Z,28.2598,-96.7737,0.0,29.5,2 
TCOON,ioos:station:TCOON:127:1,2017-07-01T09:18:00Z,28.2598,-96.7737,0.0,29.4,2 
TCOON,ioos:station:TCOON:127:1,2017-07-01T10:18:00Z,28.2598,-96.7737,0.0,29.4,2 
TCOON,ioos:station:TCOON:127:1,2017-07-01T11:18:00Z,28.2598,-96.7737,0.0,29.3,2 
TCOON,ioos:station:TCOON:127:1,2017-07-01T12:18:00Z,28.2598,-96.7737,0.0,29.3,2 
TCOON,ioos:station:TCOON:127:1,2017-07-01T13:18:00Z,28.2598,-96.7737,0.0,29.2,2 
TCOON,ioos:station:TCOON:127:1,2017-07-01T14:24:00Z,28.2598,-96.7737,0.0,29.1,2 
TCOON,ioos:station:TCOON:127:1,2017-07-01T15:18:00Z,28.2598,-96.7737,0.0,29.3,2 
TCOON,ioos:station:TCOON:127:1,2017-07-01T16:18:00Z,28.2598,-96.7737,0.0,29.4,2 
TCOON,ioos:station:TCOON:127:1,2017-07-01T17:18:00Z,28.2598,-96.7737,0.0,29.7,2 
TCOON,ioos:station:TCOON:127:1,2017-07-01T18:18:00Z,28.2598,-96.7737,0.0,29.9,2 
TCOON,ioos:station:TCOON:127:1,2017-07-01T19:18:00Z,28.2598,-96.7737,0.0,30.1,2 
TCOON,ioos:station:TCOON:127:1,2017-07-01T20:18:00Z,28.2598,-96.7737,0.0,30.4,2 
TCOON,ioos:station:TCOON:127:1,2017-07-01T21:18:00Z,28.2598,-96.7737,0.0,30.6,2 
TCOON,ioos:station:TCOON:127:1,2017-07-01T22:18:00Z,28.2598,-96.7737,0.0,30.5,2 
TCOON,ioos:station:TCOON:127:1,2017-07-01T23:18:00Z,28.2598,-96.7737,0.0,30.4,2 
TCOON,ioos:station:TCOON:127:1,2017-07-02T00:18:00Z,28.2598,-96.7737,0.0,30.3,2 
TCOON,ioos:station:TCOON:127:1,2017-07-02T01:24:00Z,28.2598,-96.7737,0.0,30.3,2 
TCOON,ioos:station:TCOON:127:1,2017-07-02T02:18:00Z,28.2598,-96.7737,0.0,30.2,2 
TCOON,ioos:station:TCOON:127:1,2017-07-02T03:18:00Z,28.2598,-96.7737,0.0,30.0,2 
TCOON,ioos:station:TCOON:127:1,2017-07-02T04:18:00Z,28.2598,-96.7737,0.0,29.8,2 
TCOON,ioos:station:TCOON:127:1,2017-07-02T05:18:00Z,28.2598,-96.7737,0.0,29.8,2 
TCOON,ioos:station:TCOON:127:1,2017-07-02T06:18:00Z,28.2598,-96.7737,0.0,29.8,2 
TCOON,ioos:station:TCOON:127:1,2017-07-02T07:24:00Z,28.2598,-96.7737,0.0,29.6,2 
TCOON,ioos:station:TCOON:127:1,2017-07-02T08:18:00Z,28.2598,-96.7737,0.0,29.6,2 
TCOON,ioos:station:TCOON:127:1,2017-07-02T09:24:00Z,28.2598,-96.7737,0.0,29.5,2 
TCOON,ioos:station:TCOON:127:1,2017-07-02T10:24:00Z,28.2598,-96.7737,0.0,29.5,2 
TCOON,ioos:station:TCOON:127:1,2017-07-02T11:24:00Z,28.2598,-96.7737,0.0,29.3,2 
TCOON,ioos:station:TCOON:127:1,2017-07-02T12:18:00Z,28.2598,-96.7737,0.0,29.3,2 
TCOON,ioos:station:TCOON:127:1,2017-07-02T13:18:00Z,28.2598,-96.7737,0.0,29.4,2 
TCOON,ioos:station:TCOON:127:1,2017-07-02T14:18:00Z,28.2598,-96.7737,0.0,29.5,2 
TCOON,ioos:station:TCOON:127:1,2017-07-02T15:18:00Z,28.2598,-96.7737,0.0,29.6,2 
TCOON,ioos:station:TCOON:127:1,2017-07-02T16:18:00Z,28.2598,-96.7737,0.0,29.8,2 
TCOON,ioos:station:TCOON:127:1,2017-07-02T17:18:00Z,28.2598,-96.7737,0.0,30.0,2 
TCOON,ioos:station:TCOON:127:1,2017-07-02T18:18:00Z,28.2598,-96.7737,0.0,30.5,2 
TCOON,ioos:station:TCOON:127:1,2017-07-02T19:18:00Z,28.2598,-96.7737,0.0,30.5,2 
TCOON,ioos:station:TCOON:127:1,2017-07-02T20:18:00Z,28.2598,-96.7737,0.0,30.6,2 
TCOON,ioos:station:TCOON:127:1,2017-07-02T21:18:00Z,28.2598,-96.7737,0.0,30.8,2 
TCOON,ioos:station:TCOON:127:1,2017-07-02T22:18:00Z,28.2598,-96.7737,0.0,30.8,2 
TCOON,ioos:station:TCOON:127:1,2017-07-02T23:18:00Z,28.2598,-96.7737,0.0,30.9,2 
TCOON,ioos:station:TCOON:127:1,2017-07-03T00:18:00Z,28.2598,-96.7737,0.0,31.0,2 
TCOON,ioos:station:TCOON:127:1,2017-07-03T01:24:00Z,28.2598,-96.7737,0.0,30.9,2 
TCOON,ioos:station:TCOON:127:1,2017-07-03T02:18:00Z,28.2598,-96.7737,0.0,30.7,2 
TCOON,ioos:station:TCOON:127:1,2017-07-03T03:18:00Z,28.2598,-96.7737,0.0,30.5,2 
TCOON,ioos:station:TCOON:127:1,2017-07-03T04:24:00Z,28.2598,-96.7737,0.0,30.3,2 
TCOON,ioos:station:TCOON:127:1,2017-07-03T05:18:00Z,28.2598,-96.7737,0.0,30.2,2 
TCOON,ioos:station:TCOON:127:1,2017-07-03T06:24:00Z,28.2598,-96.7737,0.0,30.0,2 
TCOON,ioos:station:TCOON:127:1,2017-07-03T07:18:00Z,28.2598,-96.7737,0.0,30.0,2 
TCOON,ioos:station:TCOON:127:1,2017-07-03T08:18:00Z,28.2598,-96.7737,0.0,29.9,2 
TCOON,ioos:station:TCOON:127:1,2017-07-03T09:18:00Z,28.2598,-96.7737,0.0,29.7,2 
TCOON,ioos:station:TCOON:127:1,2017-07-03T10:18:00Z,28.2598,-96.7737,0.0,29.5,2 
TCOON,ioos:station:TCOON:127:1,2017-07-03T11:18:00Z,28.2598,-96.7737,0.0,29.5,2 
TCOON,ioos:station:TCOON:127:1,2017-07-03T12:18:00Z,28.2598,-96.7737,0.0,29.5,2 
TCOON,ioos:station:TCOON:127:1,2017-07-03T13:18:00Z,28.2598,-96.7737,0.0,29.5,2 
TCOON,ioos:station:TCOON:127:1,2017-07-03T14:18:00Z,28.2598,-96.7737,0.0,29.6,2 
TCOON,ioos:station:TCOON:127:1,2017-07-03T15:18:00Z,28.2598,-96.7737,0.0,29.7,2 
TCOON,ioos:station:TCOON:127:1,2017-07-03T16:18:00Z,28.2598,-96.7737,0.0,29.8,2 
TCOON,ioos:station:TCOON:127:1,2017-07-03T17:18:00Z,28.2598,-96.7737,0.0,30.0,2 
TCOON,ioos:station:TCOON:127:1,2017-07-03T18:24:00Z,28.2598,-96.7737,0.0,30.2,2 
TCOON,ioos:station:TCOON:127:1,2017-07-03T19:18:00Z,28.2598,-96.7737,0.0,30.3,2 
TCOON,ioos:station:TCOON:127:1,2017-07-03T20:18:00Z,28.2598,-96.7737,0.0,30.5,2 
TCOON,ioos:station:TCOON:127:1,2017-07-03T21:18:00Z,28.2598,-96.7737,0.0,30.8,2 
TCOON,ioos:station:TCOON:127:1,2017-07-03T22:18:00Z,28.2598,-96.7737,0.0,30.8,2 
TCOON,ioos:station:TCOON:127:1,2017-07-03T23:18:00Z,28.2598,-96.7737,0.0,30.7,2 
TCOON,ioos:station:TCOON:127:1,2017-07-04T00:18:00Z,28.2598,-96.7737,0.0,30.6,2 
TCOON,ioos:station:TCOON:127:1,2017-07-04T01:18:00Z,28.2598,-96.7737,0.0,30.5,2 
TCOON,ioos:station:TCOON:127:1,2017-07-04T02:18:00Z,28.2598,-96.7737,0.0,30.5,2 
TCOON,ioos:station:TCOON:127:1,2017-07-04T03:18:00Z,28.2598,-96.7737,0.0,30.3,2 
TCOON,ioos:station:TCOON:127:1,2017-07-04T04:18:00Z,28.2598,-96.7737,0.0,30.1,2 
TCOON,ioos:station:TCOON:127:1,2017-07-04T05:18:00Z,28.2598,-96.7737,0.0,30.0,2 
TCOON,ioos:station:TCOON:127:1,2017-07-04T06:18:00Z,28.2598,-96.7737,0.0,29.9,2 
TCOON,ioos:station:TCOON:127:1,2017-07-04T07:18:00Z,28.2598,-96.7737,0.0,29.8,2 
TCOON,ioos:station:TCOON:127:1,2017-07-04T08:18:00Z,28.2598,-96.7737,0.0,29.9,2 
TCOON,ioos:station:TCOON:127:1,2017-07-04T09:18:00Z,28.2598,-96.7737,0.0,29.8,2 
TCOON,ioos:station:TCOON:127:1,2017-07-04T10:18:00Z,28.2598,-96.7737,0.0,29.7,2 
TCOON,ioos:station:TCOON:127:1,2017-07-04T11:18:00Z,28.2598,-96.7737,0.0,29.5,2 
TCOON,ioos:station:TCOON:127:1,2017-07-04T12:18:00Z,28.2598,-96.7737,0.0,29.3,2 
TCOON,ioos:station:TCOON:127:1,2017-07-04T13:18:00Z,28.2598,-96.7737,0.0,29.3,2 
TCOON,ioos:station:TCOON:127:1,2017-07-04T14:18:00Z,28.2598,-96.7737,0.0,29.4,2 
TCOON,ioos:station:TCOON:127:1,2017-07-04T15:18:00Z,28.2598,-96.7737,0.0,29.5,2 
TCOON,ioos:station:TCOON:127:1,2017-07-04T16:18:00Z,28.2598,-96.7737,0.0,29.7,2 
TCOON,ioos:station:TCOON:127:1,2017-07-04T17:18:00Z,28.2598,-96.7737,0.0,30.0,2 
TCOON,ioos:station:TCOON:127:1,2017-07-04T18:18:00Z,28.2598,-96.7737,0.0,30.2,2 
TCOON,ioos:station:TCOON:127:1,2017-07-04T19:18:00Z,28.2598,-96.7737,0.0,30.4,2 
TCOON,ioos:station:TCOON:127:1,2017-07-04T20:18:00Z,28.2598,-96.7737,0.0,30.6,2 
TCOON,ioos:station:TCOON:127:1,2017-07-04T21:18:00Z,28.2598,-96.7737,0.0,30.8,2 
TCOON,ioos:station:TCOON:127:1,2017-07-04T22:18:00Z,28.2598,-96.7737,0.0,30.8,2 
TCOON,ioos:station:TCOON:127:1,2017-07-04T23:18:00Z,28.2598,-96.7737,0.0,31.0,2 
TCOON,ioos:station:TCOON:127:1,2017-07-05T00:18:00Z,28.2598,-96.7737,0.0,30.8,2 
TCOON,ioos:station:TCOON:127:1,2017-07-05T01:18:00Z,28.2598,-96.7737,0.0,30.8,2 
TCOON,ioos:station:TCOON:127:1,2017-07-05T02:18:00Z,28.2598,-96.7737,0.0,30.6,2 
TCOON,ioos:station:TCOON:127:1,2017-07-05T03:18:00Z,28.2598,-96.7737,0.0,30.4,2 
TCOON,ioos:station:TCOON:127:1,2017-07-05T04:18:00Z,28.2598,-96.7737,0.0,30.2,2 
TCOON,ioos:station:TCOON:127:1,2017-07-05T05:18:00Z,28.2598,-96.7737,0.0,30.2,2 
TCOON,ioos:station:TCOON:127:1,2017-07-05T06:18:00Z,28.2598,-96.7737,0.0,30.1,2 
TCOON,ioos:station:TCOON:127:1,2017-07-05T07:18:00Z,28.2598,-96.7737,0.0,30.1,2 
TCOON,ioos:station:TCOON:127:1,2017-07-05T08:18:00Z,28.2598,-96.7737,0.0,29.9,2 
TCOON,ioos:station:TCOON:127:1,2017-07-05T09:18:00Z,28.2598,-96.7737,0.0,29.7,2 
TCOON,ioos:station:TCOON:127:1,2017-07-05T10:18:00Z,28.2598,-96.7737,0.0,29.6,2 
TCOON,ioos:station:TCOON:127:1,2017-07-05T11:18:00Z,28.2598,-96.7737,0.0,29.5,2 
TCOON,ioos:station:TCOON:127:1,2017-07-05T12:18:00Z,28.2598,-96.7737,0.0,29.4,2 
TCOON,ioos:station:TCOON:127:1,2017-07-05T13:18:00Z,28.2598,-96.7737,0.0,29.4,2 
TCOON,ioos:station:TCOON:127:1,2017-07-05T14:18:00Z,28.2598,-96.7737,0.0,29.5,2 
TCOON,ioos:station:TCOON:127:1,2017-07-05T15:18:00Z,28.2598,-96.7737,0.0,29.7,2 
TCOON,ioos:station:TCOON:127:1,2017-07-05T16:18:00Z,28.2598,-96.7737,0.0,29.9,2 
TCOON,ioos:station:TCOON:127:1,2017-07-05T17:18:00Z,28.2598,-96.7737,0.0,30.2,2 
TCOON,ioos:station:TCOON:127:1,2017-07-05T18:18:00Z,28.2598,-96.7737,0.0,30.0,2 
TCOON,ioos:station:TCOON:127:1,2017-07-05T19:18:00Z,28.2598,-96.7737,0.0,30.5,2 
TCOON,ioos:station:TCOON:127:1,2017-07-05T20:18:00Z,28.2598,-96.7737,0.0,30.8,2 
TCOON,ioos:station:TCOON:127:1,2017-07-05T21:18:00Z,28.2598,-96.7737,0.0,30.9,2 
TCOON,ioos:station:TCOON:127:1,2017-07-05T22:18:00Z,28.2598,-96.7737,0.0,31.1,2 
TCOON,ioos:station:TCOON:127:1,2017-07-05T23:18:00Z,28.2598,-96.7737,0.0,31.1,2 
TCOON,ioos:station:TCOON:127:1,2017-07-06T00:18:00Z,28.2598,-96.7737,0.0,31.0,2 
TCOON,ioos:station:TCOON:127:1,2017-07-06T01:18:00Z,28.2598,-96.7737,0.0,30.8,2 
TCOON,ioos:station:TCOON:127:1,2017-07-06T02:18:00Z,28.2598,-96.7737,0.0,30.7,2 
TCOON,ioos:station:TCOON:127:1,2017-07-06T03:18:00Z,28.2598,-96.7737,0.0,30.6,2 
TCOON,ioos:station:TCOON:127:1,2017-07-06T04:18:00Z,28.2598,-96.7737,0.0,30.5,2 
TCOON,ioos:station:TCOON:127:1,2017-07-06T05:18:00Z,28.2598,-96.7737,0.0,30.4,2 
TCOON,ioos:station:TCOON:127:1,2017-07-06T06:18:00Z,28.2598,-96.7737,0.0,30.3,2 
TCOON,ioos:station:TCOON:127:1,2017-07-06T07:18:00Z,28.2598,-96.7737,0.0,30.2,2 
TCOON,ioos:station:TCOON:127:1,2017-07-06T08:18:00Z,28.2598,-96.7737,0.0,30.1,2 
TCOON,ioos:station:TCOON:127:1,2017-07-06T09:18:00Z,28.2598,-96.7737,0.0,29.9,2 
TCOON,ioos:station:TCOON:127:1,2017-07-06T10:18:00Z,28.2598,-96.7737,0.0,29.9,2 
TCOON,ioos:station:TCOON:127:1,2017-07-06T11:18:00Z,28.2598,-96.7737,0.0,29.9,2 
TCOON,ioos:station:TCOON:127:1,2017-07-06T12:18:00Z,28.2598,-96.7737,0.0,29.9,2 
TCOON,ioos:station:TCOON:127:1,2017-07-06T13:18:00Z,28.2598,-96.7737,0.0,29.7,2 
TCOON,ioos:station:TCOON:127:1,2017-07-06T14:18:00Z,28.2598,-96.7737,0.0,29.8,2 
TCOON,ioos:station:TCOON:127:1,2017-07-10T17:36:00Z,28.2598,-96.7737,0.0,28.4,2 
TCOON,ioos:station:TCOON:127:1,2017-07-10T18:18:00Z,28.2598,-96.7737,0.0,31.4,2 
TCOON,ioos:station:TCOON:127:1,2017-07-10T19:18:00Z,28.2598,-96.7737,0.0,31.7,2 
TCOON,ioos:station:TCOON:127:1,2017-07-10T20:18:00Z,28.2598,-96.7737,0.0,32.0,2 
TCOON,ioos:station:TCOON:127:1,2017-07-10T21:18:00Z,28.2598,-96.7737,0.0,32.2,2 
TCOON,ioos:station:TCOON:127:1,2017-07-10T22:18:00Z,28.2598,-96.7737,0.0,32.3,2 
TCOON,ioos:station:TCOON:127:1,2017-07-10T23:18:00Z,28.2598,-96.7737,0.0,32.3,2 
TCOON,ioos:station:TCOON:127:1,2017-07-11T00:18:00Z,28.2598,-96.7737,0.0,32.3,2 
TCOON,ioos:station:TCOON:127:1,2017-07-11T01:18:00Z,28.2598,-96.7737,0.0,32.0,2 
TCOON,ioos:station:TCOON:127:1,2017-07-11T02:18:00Z,28.2598,-96.7737,0.0,31.6,2 
TCOON,ioos:station:TCOON:127:1,2017-07-11T03:18:00Z,28.2598,-96.7737,0.0,31.4,2 
TCOON,ioos:station:TCOON:127:1,2017-07-11T04:18:00Z,28.2598,-96.7737,0.0,31.2,2 
TCOON,ioos:station:TCOON:127:1,2017-07-11T05:18:00Z,28.2598,-96.7737,0.0,31.0,2 
TCOON,ioos:station:TCOON:127:1,2017-07-11T06:18:00Z,28.2598,-96.7737,0.0,30.9,2 
TCOON,ioos:station:TCOON:127:1,2017-07-11T07:18:00Z,28.2598,-96.7737,0.0,30.6,2 
TCOON,ioos:station:TCOON:127:1,2017-07-11T08:18:00Z,28.2598,-96.7737,0.0,30.5,2 
TCOON,ioos:station:TCOON:127:1,2017-07-11T09:18:00Z,28.2598,-96.7737,0.0,30.4,2 
TCOON,ioos:station:TCOON:127:1,2017-07-11T10:18:00Z,28.2598,-96.7737,0.0,30.3,2 
TCOON,ioos:station:TCOON:127:1,2017-07-11T11:18:00Z,28.2598,-96.7737,0.0,30.3,2 
TCOON,ioos:station:TCOON:127:1,2017-07-11T12:18:00Z,28.2598,-96.7737,0.0,30.2,2 
TCOON,ioos:station:TCOON:127:1,2017-07-11T13:18:00Z,28.2598,-96.7737,0.0,30.1,2 
TCOON,ioos:station:TCOON:127:1,2017-07-11T14:18:00Z,28.2598,-96.7737,0.0,30.1,2 
TCOON,ioos:station:TCOON:127:1,2017-07-11T15:18:00Z,28.2598,-96.7737,0.0,30.3,2 
TCOON,ioos:station:TCOON:127:1,2017-07-11T16:18:00Z,28.2598,-96.7737,0.0,30.5,2 
TCOON,ioos:station:TCOON:127:1,2017-07-11T17:18:00Z,28.2598,-96.7737,0.0,30.8,2 
TCOON,ioos:station:TCOON:127:1,2017-07-11T18:18:00Z,28.2598,-96.7737,0.0,31.2,2 
TCOON,ioos:station:TCOON:127:1,2017-07-11T19:18:00Z,28.2598,-96.7737,0.0,31.2,2 
TCOON,ioos:station:TCOON:127:1,2017-07-11T20:18:00Z,28.2598,-96.7737,0.0,31.5,2 
TCOON,ioos:station:TCOON:127:1,2017-07-11T21:18:00Z,28.2598,-96.7737,0.0,31.5,2 
TCOON,ioos:station:TCOON:127:1,2017-07-11T22:18:00Z,28.2598,-96.7737,0.0,31.4,2 
TCOON,ioos:station:TCOON:127:1,2017-07-11T23:18:00Z,28.2598,-96.7737,0.0,31.4,2 
TCOON,ioos:station:TCOON:127:1,2017-07-12T00:18:00Z,28.2598,-96.7737,0.0,31.6,2 
TCOON,ioos:station:TCOON:127:1,2017-07-12T01:18:00Z,28.2598,-96.7737,0.0,31.4,2 
TCOON,ioos:station:TCOON:127:1,2017-07-12T02:18:00Z,28.2598,-96.7737,0.0,31.2,2 
TCOON,ioos:station:TCOON:127:1,2017-07-12T03:18:00Z,28.2598,-96.7737,0.0,31.1,2 
TCOON,ioos:station:TCOON:127:1,2017-07-12T04:18:00Z,28.2598,-96.7737,0.0,30.9,2 
TCOON,ioos:station:TCOON:127:1,2017-07-12T05:18:00Z,28.2598,-96.7737,0.0,30.7,2 
TCOON,ioos:station:TCOON:127:1,2017-07-12T06:24:00Z,28.2598,-96.7737,0.0,30.6,2 
TCOON,ioos:station:TCOON:127:1,2017-07-12T07:18:00Z,28.2598,-96.7737,0.0,30.5,2 
TCOON,ioos:station:TCOON:127:1,2017-07-12T08:18:00Z,28.2598,-96.7737,0.0,30.3,2 
TCOON,ioos:station:TCOON:127:1,2017-07-12T09:18:00Z,28.2598,-96.7737,0.0,30.2,2 
TCOON,ioos:station:TCOON:127:1,2017-07-12T10:18:00Z,28.2598,-96.7737,0.0,30.3,2 
TCOON,ioos:station:TCOON:127:1,2017-07-12T11:18:00Z,28.2598,-96.7737,0.0,30.4,2 
TCOON,ioos:station:TCOON:127:1,2017-07-12T12:18:00Z,28.2598,-96.7737,0.0,30.2,2 
TCOON,ioos:station:TCOON:127:1,2017-07-12T13:18:00Z,28.2598,-96.7737,0.0,30.0,2 
TCOON,ioos:station:TCOON:127:1,2017-07-12T14:18:00Z,28.2598,-96.7737,0.0,29.8,2 
TCOON,ioos:station:TCOON:127:1,2017-07-12T15:18:00Z,28.2598,-96.7737,0.0,29.9,2 
TCOON,ioos:station:TCOON:127:1,2017-07-12T16:18:00Z,28.2598,-96.7737,0.0,30.3,2 
TCOON,ioos:station:TCOON:127:1,2017-07-12T17:18:00Z,28.2598,-96.7737,0.0,30.5,2 
TCOON,ioos:station:TCOON:127:1,2017-07-12T18:18:00Z,28.2598,-96.7737,0.0,30.8,2 
TCOON,ioos:station:TCOON:127:1,2017-07-12T19:18:00Z,28.2598,-96.7737,0.0,31.0,2 
TCOON,ioos:station:TCOON:127:1,2017-07-12T20:18:00Z,28.2598,-96.7737,0.0,31.2,2 
TCOON,ioos:station:TCOON:127:1,2017-07-12T21:18:00Z,28.2598,-96.7737,0.0,31.1,2 
TCOON,ioos:station:TCOON:127:1,2017-07-12T22:18:00Z,28.2598,-96.7737,0.0,31.1,2 
TCOON,ioos:station:TCOON:127:1,2017-07-13T00:18:00Z,28.2598,-96.7737,0.0,30.9,2 
TCOON,ioos:station:TCOON:127:1,2017-07-13T01:18:00Z,28.2598,-96.7737,0.0,30.6,2 
TCOON,ioos:station:TCOON:127:1,2017-07-13T02:18:00Z,28.2598,-96.7737,0.0,30.4,2 
TCOON,ioos:station:TCOON:127:1,2017-07-13T03:18:00Z,28.2598,-96.7737,0.0,30.5,2 
TCOON,ioos:station:TCOON:127:1,2017-07-13T04:18:00Z,28.2598,-96.7737,0.0,30.5,2 
TCOON,ioos:station:TCOON:127:1,2017-07-13T05:18:00Z,28.2598,-96.7737,0.0,30.4,2 
TCOON,ioos:station:TCOON:127:1,2017-07-13T06:24:00Z,28.2598,-96.7737,0.0,30.4,2 
TCOON,ioos:station:TCOON:127:1,2017-07-13T07:18:00Z,28.2598,-96.7737,0.0,30.3,2 
TCOON,ioos:station:TCOON:127:1,2017-07-13T08:18:00Z,28.2598,-96.7737,0.0,30.2,2 
TCOON,ioos:station:TCOON:127:1,2017-07-13T09:18:00Z,28.2598,-96.7737,0.0,30.1,2 
TCOON,ioos:station:TCOON:127:1,2017-07-13T10:18:00Z,28.2598,-96.7737,0.0,30.0,2 
TCOON,ioos:station:TCOON:127:1,2017-07-13T11:18:00Z,28.2598,-96.7737,0.0,29.9,2 
TCOON,ioos:station:TCOON:127:1,2017-07-13T12:18:00Z,28.2598,-96.7737,0.0,29.9,2 
TCOON,ioos:station:TCOON:127:1,2017-07-13T13:18:00Z,28.2598,-96.7737,0.0,29.8,2 
TCOON,ioos:station:TCOON:127:1,2017-07-13T14:18:00Z,28.2598,-96.7737,0.0,29.9,2 
TCOON,ioos:station:TCOON:127:1,2017-07-13T15:18:00Z,28.2598,-96.7737,0.0,30.1,2 
TCOON,ioos:station:TCOON:127:1,2017-07-13T16:18:00Z,28.2598,-96.7737,0.0,30.2,2 
TCOON,ioos:station:TCOON:127:1,2017-07-13T17:18:00Z,28.2598,-96.7737,0.0,30.8,2 
TCOON,ioos:station:TCOON:127:1,2017-07-13T18:18:00Z,28.2598,-96.7737,0.0,30.9,2 
TCOON,ioos:station:TCOON:127:1,2017-07-13T19:18:00Z,28.2598,-96.7737,0.0,31.2,2 
TCOON,ioos:station:TCOON:127:1,2017-07-13T20:18:00Z,28.2598,-96.7737,0.0,31.6,2 
TCOON,ioos:station:TCOON:127:1,2017-07-13T21:18:00Z,28.2598,-96.7737,0.0,31.8,2 
TCOON,ioos:station:TCOON:127:1,2017-07-13T22:18:00Z,28.2598,-96.7737,0.0,31.8,2 
TCOON,ioos:station:TCOON:127:1,2017-07-13T23:18:00Z,28.2598,-96.7737,0.0,31.7,2 
TCOON,ioos:station:TCOON:127:1,2017-07-14T00:18:00Z,28.2598,-96.7737,0.0,31.6,2 
TCOON,ioos:station:TCOON:127:1,2017-07-14T01:18:00Z,28.2598,-96.7737,0.0,31.4,2 
TCOON,ioos:station:TCOON:127:1,2017-07-14T02:18:00Z,28.2598,-96.7737,0.0,31.2,2 
TCOON,ioos:station:TCOON:127:1,2017-07-14T03:18:00Z,28.2598,-96.7737,0.0,31.0,2 
TCOON,ioos:station:TCOON:127:1,2017-07-14T04:18:00Z,28.2598,-96.7737,0.0,30.9,2 
TCOON,ioos:station:TCOON:127:1,2017-07-14T05:18:00Z,28.2598,-96.7737,0.0,30.9,2 
TCOON,ioos:station:TCOON:127:1,2017-07-14T06:18:00Z,28.2598,-96.7737,0.0,30.8,2 
TCOON,ioos:station:TCOON:127:1,2017-07-14T07:18:00Z,28.2598,-96.7737,0.0,30.6,2 
TCOON,ioos:station:TCOON:127:1,2017-07-14T08:18:00Z,28.2598,-96.7737,0.0,30.7,2 
TCOON,ioos:station:TCOON:127:1,2017-07-14T09:18:00Z,28.2598,-96.7737,0.0,30.6,2 
TCOON,ioos:station:TCOON:127:1,2017-07-14T10:18:00Z,28.2598,-96.7737,0.0,30.5,2 
TCOON,ioos:station:TCOON:127:1,2017-07-14T11:18:00Z,28.2598,-96.7737,0.0,30.4,2 
TCOON,ioos:station:TCOON:127:1,2017-07-14T12:18:00Z,28.2598,-96.7737,0.0,30.4,2 
TCOON,ioos:station:TCOON:127:1,2017-07-14T13:18:00Z,28.2598,-96.7737,0.0,30.3,2 
TCOON,ioos:station:TCOON:127:1,2017-07-14T14:18:00Z,28.2598,-96.7737,0.0,30.3,2 
TCOON,ioos:station:TCOON:127:1,2017-07-14T15:18:00Z,28.2598,-96.7737,0.0,30.4,2 
TCOON,ioos:station:TCOON:127:1,2017-07-14T16:18:00Z,28.2598,-96.7737,0.0,30.6,2 
TCOON,ioos:station:TCOON:127:1,2017-07-14T17:18:00Z,28.2598,-96.7737,0.0,31.0,2 
TCOON,ioos:station:TCOON:127:1,2017-07-14T18:18:00Z,28.2598,-96.7737,0.0,31.8,2 
TCOON,ioos:station:TCOON:127:1,2017-07-14T19:18:00Z,28.2598,-96.7737,0.0,32.2,2 
TCOON,ioos:station:TCOON:127:1,2017-07-14T20:18:00Z,28.2598,-96.7737,0.0,31.9,2 
TCOON,ioos:station:TCOON:127:1,2017-07-14T21:18:00Z,28.2598,-96.7737,0.0,31.9,2 
TCOON,ioos:station:TCOON:127:1,2017-07-14T22:18:00Z,28.2598,-96.7737,0.0,31.8,2 
TCOON,ioos:station:TCOON:127:1,2017-07-14T23:18:00Z,28.2598,-96.7737,0.0,31.9,2 
TCOON,ioos:station:TCOON:127:1,2017-07-15T00:18:00Z,28.2598,-96.7737,0.0,31.8,2 
TCOON,ioos:station:TCOON:127:1,2017-07-15T01:18:00Z,28.2598,-96.7737,0.0,31.7,2 
TCOON,ioos:station:TCOON:127:1,2017-07-15T02:18:00Z,28.2598,-96.7737,0.0,31.5,2 
TCOON,ioos:station:TCOON:127:1,2017-07-15T03:18:00Z,28.2598,-96.7737,0.0,31.4,2 
TCOON,ioos:station:TCOON:127:1,2017-07-15T04:18:00Z,28.2598,-96.7737,0.0,31.1,2 
TCOON,ioos:station:TCOON:127:1,2017-07-15T05:18:00Z,28.2598,-96.7737,0.0,30.9,2 
TCOON,ioos:station:TCOON:127:1,2017-07-15T06:18:00Z,28.2598,-96.7737,0.0,30.8,2 
TCOON,ioos:station:TCOON:127:1,2017-07-15T07:18:00Z,28.2598,-96.7737,0.0,30.8,2 
TCOON,ioos:station:TCOON:127:1,2017-07-15T08:18:00Z,28.2598,-96.7737,0.0,30.6,2 
TCOON,ioos:station:TCOON:127:1,2017-07-15T09:18:00Z,28.2598,-96.7737,0.0,30.5,2 
TCOON,ioos:station:TCOON:127:1,2017-07-15T10:18:00Z,28.2598,-96.7737,0.0,30.5,2 
TCOON,ioos:station:TCOON:127:1,2017-07-15T11:18:00Z,28.2598,-96.7737,0.0,30.4,2 
TCOON,ioos:station:TCOON:127:1,2017-07-15T12:18:00Z,28.2598,-96.7737,0.0,30.4,2 
TCOON,ioos:station:TCOON:127:1,2017-07-15T13:18:00Z,28.2598,-96.7737,0.0,30.4,2 
TCOON,ioos:station:TCOON:127:1,2017-07-15T14:18:00Z,28.2598,-96.7737,0.0,30.5,2 
TCOON,ioos:station:TCOON:127:1,2017-07-15T15:18:00Z,28.2598,-96.7737,0.0,30.7,2 
TCOON,ioos:station:TCOON:127:1,2017-07-15T16:18:00Z,28.2598,-96.7737,0.0,31.1,2 
TCOON,ioos:station:TCOON:127:1,2017-07-15T17:18:00Z,28.2598,-96.7737,0.0,31.4,2 
TCOON,ioos:station:TCOON:127:1,2017-07-15T18:18:00Z,28.2598,-96.7737,0.0,31.6,2 
TCOON,ioos:station:TCOON:127:1,2017-07-15T19:18:00Z,28.2598,-96.7737,0.0,32.0,2 
TCOON,ioos:station:TCOON:127:1,2017-07-15T20:18:00Z,28.2598,-96.7737,0.0,32.6,2 
TCOON,ioos:station:TCOON:127:1,2017-07-15T21:18:00Z,28.2598,-96.7737,0.0,32.8,2 
TCOON,ioos:station:TCOON:127:1,2017-07-15T22:18:00Z,28.2598,-96.7737,0.0,32.7,2 
TCOON,ioos:station:TCOON:127:1,2017-07-15T23:18:00Z,28.2598,-96.7737,0.0,32.6,2 
TCOON,ioos:station:TCOON:127:1,2017-07-16T00:18:00Z,28.2598,-96.7737,0.0,32.4,2 
TCOON,ioos:station:TCOON:127:1,2017-07-16T01:18:00Z,28.2598,-96.7737,0.0,31.9,2 
TCOON,ioos:station:TCOON:127:1,2017-07-16T02:18:00Z,28.2598,-96.7737,0.0,31.7,2 
TCOON,ioos:station:TCOON:127:1,2017-07-16T03:18:00Z,28.2598,-96.7737,0.0,31.5,2 
TCOON,ioos:station:TCOON:127:1,2017-07-16T04:18:00Z,28.2598,-96.7737,0.0,31.3,2 
TCOON,ioos:station:TCOON:127:1,2017-07-16T05:18:00Z,28.2598,-96.7737,0.0,31.2,2 
TCOON,ioos:station:TCOON:127:1,2017-07-16T06:18:00Z,28.2598,-96.7737,0.0,31.2,2 
TCOON,ioos:station:TCOON:127:1,2017-07-16T07:18:00Z,28.2598,-96.7737,0.0,31.0,2 
TCOON,ioos:station:TCOON:127:1,2017-07-16T08:18:00Z,28.2598,-96.7737,0.0,31.0,2 
TCOON,ioos:station:TCOON:127:1,2017-07-16T09:18:00Z,28.2598,-96.7737,0.0,30.8,2 
TCOON,ioos:station:TCOON:127:1,2017-07-16T10:18:00Z,28.2598,-96.7737,0.0,30.8,2 
TCOON,ioos:station:TCOON:127:1,2017-07-16T11:18:00Z,28.2598,-96.7737,0.0,30.2,2 
TCOON,ioos:station:TCOON:127:1,2017-07-16T12:18:00Z,28.2598,-96.7737,0.0,30.3,2 
TCOON,ioos:station:TCOON:127:1,2017-07-16T13:18:00Z,28.2598,-96.7737,0.0,30.2,2 
TCOON,ioos:station:TCOON:127:1,2017-07-16T14:18:00Z,28.2598,-96.7737,0.0,30.2,2 
TCOON,ioos:station:TCOON:127:1,2017-07-16T15:18:00Z,28.2598,-96.7737,0.0,30.4,2 
TCOON,ioos:station:TCOON:127:1,2017-07-16T16:18:00Z,28.2598,-96.7737,0.0,30.5,2 
TCOON,ioos:station:TCOON:127:1,2017-07-16T17:18:00Z,28.2598,-96.7737,0.0,30.5,2 
TCOON,ioos:station:TCOON:127:1,2017-07-16T18:18:00Z,28.2598,-96.7737,0.0,30.7,2 
TCOON,ioos:station:TCOON:127:1,2017-07-16T19:18:00Z,28.2598,-96.7737,0.0,30.8,2 
TCOON,ioos:station:TCOON:127:1,2017-07-16T20:18:00Z,28.2598,-96.7737,0.0,30.7,2 
TCOON,ioos:station:TCOON:127:1,2017-07-16T21:18:00Z,28.2598,-96.7737,0.0,31.0,2 
TCOON,ioos:station:TCOON:127:1,2017-07-16T22:18:00Z,28.2598,-96.7737,0.0,31.4,2 
TCOON,ioos:station:TCOON:127:1,2017-07-16T23:18:00Z,28.2598,-96.7737,0.0,31.4,2 
TCOON,ioos:station:TCOON:127:1,2017-07-17T00:18:00Z,28.2598,-96.7737,0.0,31.3,2 
TCOON,ioos:station:TCOON:127:1,2017-07-17T01:18:00Z,28.2598,-96.7737,0.0,31.2,2 
TCOON,ioos:station:TCOON:127:1,2017-07-17T02:18:00Z,28.2598,-96.7737,0.0,31.1,2 
TCOON,ioos:station:TCOON:127:1,2017-07-17T03:18:00Z,28.2598,-96.7737,0.0,31.0,2 
TCOON,ioos:station:TCOON:127:1,2017-07-17T04:24:00Z,28.2598,-96.7737,0.0,30.8,2 
TCOON,ioos:station:TCOON:127:1,2017-07-17T05:18:00Z,28.2598,-96.7737,0.0,30.7,2 
TCOON,ioos:station:TCOON:127:1,2017-07-17T06:24:00Z,28.2598,-96.7737,0.0,30.6,2 
TCOON,ioos:station:TCOON:127:1,2017-07-17T07:18:00Z,28.2598,-96.7737,0.0,30.6,2 
TCOON,ioos:station:TCOON:127:1,2017-07-17T08:18:00Z,28.2598,-96.7737,0.0,30.5,2 
TCOON,ioos:station:TCOON:127:1,2017-07-17T09:18:00Z,28.2598,-96.7737,0.0,30.4,2 